Regional Weather Roundup
Issued by NWS

Home | Current Version | Previous Version | Graphics & Text | Print | Product List | Glossary On
Versions: 1 2 3 4 5 6 7 8 9 10 11 12 13 14 15 16 17 18 19 20 21 22 23 24 25 26 27 28 29 30 31 32 33 34 35 36 37 38 39 40 41 42 43 44 45 46 47 48 49 50
000
ASUS43 KBIS 200110
RWRND

NORTH DAKOTA REGIONAL WEATHER ROUNDUP
NATIONAL WEATHER SERVICE BISMARCK ND
700 PM CST FRI DEC 19 2014

NOTE: "FAIR" INDICATES FEW OR NO CLOUDS BELOW 12,000 FEET WITH NO
SIGNIFICANT WEATHER AND/OR OBSTRUCTIONS TO VISIBILITY.


NDZ001>003-009>011-017-200200-
NORTHWEST NORTH DAKOTA

CITY           SKY/WX    TMP DP  RH WIND       PRES   REMARKS
WILLISTON      FOG       22  20  92 N6        29.91S VSB 1/2 WCI  14
MINOT          CLOUDY    26  25  96 CALM      29.92F FOG
MINOT AFB      CLOUDY    26  26 100 CALM      29.93F FOG
$$

NDZ018>021-031>035-040>046-200200-
SOUTHWEST NORTH DAKOTA

CITY           SKY/WX    TMP DP  RH WIND       PRES   REMARKS
BISMARCK       CLEAR     26  24  92 NE6       29.95S WCI  19
DICKINSON      CLEAR     30  23  75 S3        29.88S
GARRISON         N/A     28  26  92 CALM      29.93S
HETTINGER ARPT CLEAR     24  21  88 CALM      29.91S
$$

NDZ004>008-012>016-024-026-027-054-200200-
NORTHEAST NORTH DAKOTA

CITY           SKY/WX    TMP DP  RH WIND       PRES   REMARKS
GRAND FORKS    CLOUDY    29  27  92 SE6       30.01F FOG
GRND FRKS AFB  CLOUDY    28  28 100 S3        30.01S FOG
DEVILS LAKE    CLOUDY    27  19  74 SW3       29.94F
$$

NDZ022-023-025-028>030-036>039-047>053-200200-
SOUTHEAST NORTH DAKOTA

CITY           SKY/WX    TMP DP  RH WIND       PRES   REMARKS
FARGO          CLOUDY    32  28  85 S12       30.03S FOG
JAMESTOWN      CLEAR     23  21  92 S6        29.95F FOG     WCI  16
$$



USA.gov is the U.S. government's official web portal to all federal, state and local government web resources and services.